Regional Weather Roundup
Issued by NWS San Diego, CA

Home | Current Version | Previous Version | Text Only | Print | Product List | Glossary On
Versions: 1 2 3 4 5 6 7 8 9 10 11 12 13 14 15 16 17 18 19 20 21 22 23 24 25 26 27 28 29 30 31 32 33 34 35 36 37 38 39 40 41 42 43 44 45 46 47 48 49 50
000
ASUS46 KSGX 230011
RWRSGX

SAN DIEGO HOURLY WEATHER ROUNDUP
NATIONAL WEATHER SERVICE SAN DIEGO CA
400 PM PST SUN JAN 22 2017

NOTE: "FAIR" INDICATES FEW OR NO CLOUDS BELOW 12,000 FEET WITH NO
SIGNIFICANT WEATHER AND/OR OBSTRUCTIONS TO VISIBILITY.

CAZ042-043-060-061-PZZ750-775-230100-

GREATER SAN DIEGO AREA

CITY           SKY/WX    TMP DP  RH WIND       PRES   REMARKS
SAN DIEGO AP   LGT RAIN  61  50  67 S30G39    29.97F
NATIONAL CITY    N/A     62  52  69 S17       29.97F
CHULA VISTA      N/A     62  53  72 SE6       29.90F
IMPERIAL BEACH   N/A     63  49  60 SE26G41   29.98F
BROWN FIELD    CLOUDY    59  50  72 SE24G30   29.99F
MONTGOMERY FLD LGT RAIN  58  49  72 S21G35    29.95F

$$

NORTH SAN DIEGO COUNTY

CITY           SKY/WX    TMP DP  RH WIND       PRES   REMARKS
CAMP PENDLETON RAIN      56  54  93 S10       29.94F VSB 1
OCEANSIDE AP   LGT RAIN  58  54  86 S16G25    29.92F FOG
OCEANSIDE HBR    N/A     57  55  94 E25       29.95F
CARLSBAD       HVY RAIN  56  53  90 SE17G23   29.93S FOG
DEL MAR          N/A     57  53  86 W6        29.98S
LA JOLLA SCRIP   N/A     58  53  82 E23       29.96R
FALLBROOK        N/A     53  53 100 SE2       29.95F
ESCONDIDO        N/A     55  51  86 SE12      29.99R
SAN MARCOS       N/A     54  50  84 S12       29.98R
POWAY            N/A     57  51  80 SE6       29.99F

$$

EAST SAN DIEGO COUNTY

CITY           SKY/WX    TMP DP  RH WIND       PRES   REMARKS
RAMONA         RAIN      53  49  86 S18G26    29.95F FOG
SANTEE LAKES     N/A     60  51  74 SE12      29.97F
LA MESA          N/A     58  50  75 E6        29.91F
JAMUL            N/A     57  49  74 CALM      30.01F
DESCANSO N       N/A     46  42  85 SE18      29.99F
CAMPO            N/A     50  44  80 S26G35    29.97F

$$

ORANGE COUNTY AND THE LOS ANGELES BASIN

CITY           SKY/WX    TMP DP  RH WIND       PRES   REMARKS
JOHN WAYNE AP  HVY RAIN  57  57 100 S13G38    29.90F VSB 3/4
LAGUNA BEACH     N/A     56  55  95 S9        29.87F
LAKE FOREST FR   N/A     52  50  91 SE20      29.82F
HUNTINGTON BCH   N/A     57  57  99 SE15      29.91F
LOS ALAMITOS   RAIN      57  57 100 S15G24    29.89F FOG
FULLERTON      HVY RAIN  52  52 100 E12       29.90F VSB 3/4
LONG BEACH     HVY RAIN  58  56  93 S8        29.89F FOG
L.A. AP        HVY RAIN  52  52 100 E16       29.89F VSB 1/2
L.A. DOWNTOWN  HVY RAIN  52  50  93 E17G24    29.89F VSB 1/2

$$

THE INLAND EMPIRE

CITY           SKY/WX    TMP DP  RH WIND       PRES   REMARKS
CORONA         CLOUDY    49  48  97 CALM      29.92F
CHINO          HVY RAIN  51  48  89 VRB6      29.93F FOG
ONTARIO        RAIN      49  48  97 NE12      29.91F FOG
SAN BERNARDINO LGT RAIN  50  46  87 CALM      29.95F FOG
RIVERSIDE AP   HVY RAIN  49  49 100 E10       29.92F FOG
MORENO VALLEY    N/A     47  47 100 SE8       28.05F
MARCH ARB      LGT RAIN  49  49 100 E13       29.93S FOG
HORSETHIEF CYN   N/A     49  46  88 S6        29.95F
PERRIS           N/A     49  48  99 CALM      29.97F
HEMET EAST       N/A     48  44  86 CALM      30.04F
FRENCH VALLEY  NOT AVBL
TEMECULA         N/A     52  51  98 S9        29.98F

$$

SAN BERNARDINO AND RIVERSIDE COUNTY MOUNTAINS

CITY           SKY/WX    TMP DP  RH WIND       PRES   REMARKS
BIG BEAR AP    LGT SNOW  32  32 100 SW13G29   29.85F VSB 3/4 WCI  22
PINE COVE        N/A     33  33  99 CALM      30.10F

$$

SOUTHERN DESERT INCLUDING THE COACHELLA VALLEY

CITY           SKY/WX    TMP DP  RH WIND       PRES   REMARKS
PALM SPRINGS   HVY RAIN  50  49  96 W7        30.02F FOG
PALM DESERT      N/A     52  49  88 CALM      31.53S
THERMAL        LGT RAIN  55  50  83 NW10      29.98F
BLYTHE         CLOUDY    63  44  50 SE10      29.99F
IMPERIAL AP    SUNNY     67  47  48 SW5       29.94F
EL CENTRO NAS  SUNNY     66  44  45 CALM      29.96F
YUMA AZ        SUNNY     66  43  43 S23       29.98
MEXICALI       SUNNY     64  50  59 SE17      29.98F

$$

UPPER DESERT

CITY           SKY/WX    TMP DP  RH WIND       PRES   REMARKS
VICTORVILLE AP CLOUDY    46  39  76 S25G36    29.82F
HESPERIA         N/A     46  43  90 SW14      29.95F
PALMDALE       RAIN      52  46  80 SW28G37   29.81S
LANCASTER      LGT RAIN  50  47  89 NW9       29.81F
EDWARDS AFB    LGT RAIN  47  47 100 N6        29.82R
DAGGETT        CLOUDY    47  45  93 W9        29.85F
29 PALMS N     LGT RAIN  50  42  74 S22       30.02F
NEEDLES        LGT RAIN  57  43  59 S7        30.01F

$$

REGIONAL REPORTS

CITY           SKY/WX    TMP DP  RH WIND       PRES   REMARKS
SANTA BARBARA  LGT RAIN  56  54  93 SE14      29.84S
SANDBERG       LGT RAIN  41  41 100 SW17      29.85R VSB<1/4
LAS VEGAS NV   LGT RAIN  46  40  79 NE5       29.91F
PHOENIX AZ     MOCLDY    61  38  42 E7        30.07F
TIJUANA        PTSUNNY   61  46  59 SE15      30.02F

$$

OFFSHORE ISLANDS

CITY           SKY/WX    TMP DP  RH WIND       PRES   REMARKS
CATALINA ARPT  RAIN      55  55 100 S30G47    29.86F VSB 3/4
SAN NICOLAS IS   N/A    N/A N/A N/A MISG      29.86F

$$

MARINE AND OFFSHORE BUOY REPORTS

STATION/POSITION SKY/WX   TEMP    WIND        PRES    VSBY  SWELL
                          AIR SEA DIR/SP/G                  HT/PER/DIR
                          (F)     (DEG/KT/KT) (MB)    (MI)  (FT/S/D)
TANNER BANKS               60 58  200/ 23/ 27 1011.6         15/270/15
S CLEMENTE BASIN           60 60  170/ 25/ 29 1013.3         10/270/16
SAN NICOLAS IS.               57                N/A          11/290/17
SO. S. ROSA ISLA           55 57  260/ 10/ 16 1011.0         16/280/15
W. S. BARBARA CH           55 57  200/  4/  6 1010.3F        13/280/16
M. S. BARBARA CH                  230/  8/ 12 1011.5R
S. MONICA BASIN            58 58  220/  6/ 12 1010.5F        11/270/16
S PEDRO CHANNEL               59                N/A           8/270/15
CMP PENDLETON NS              58                N/A           3/230/18
OCEANSIDE OFFSHR              59                N/A           3/240/17
TORREY PINES OTR              59                N/A           7/280/17
POINT LOMA SOUTH              60                N/A           8/290/14

$$




USA.gov is the U.S. government's official web portal to all federal, state and local government web resources and services.